[[{"header":{"parameterUnit":"m.s-1","parameterCategory":1,"la1":30.2991,"la2":30.254,"lo1":-89.0895,"lo2":-89.0444,"dy":0.0017,"dx":0.0017,"nx":28,"ny":28,"refTime":"2025-09-16T03:00:00:Z","depth":0,"parameterNumber":2,"parameterNumberName":"U-component_of_WINDS"},"data":[0,0,0,0,0,0,0,0,0,0,0,0,0,0,0,0,0,0,0,0,0,0,0,0,0,0,0,0,0,0,0,0,0,0,0,0,0,0,0,0,0,0,0,0,0,0,0,0,0,0,0,0,0,0,0,0,0,0,1.431,1.4309,0,1.4278,1.4278,1.4277,1.4239,1.4239,1.4238,1.4237,1.4204,1.4204,1.4204,0,0,0,0,0,0,0,0,0,0,0,0,0,1.4335,1.4335,1.431,1.4309,1.4309,1.4278,1.4278,1.4277,1.4239,1.4239,1.4238,1.4237,1.4204,1.4204,1.4204,0,0,0,0,0,0,0,0,0,0,0,0,0,1.4316,1.4334,1.431,1.4286,1.4284,1.4278,1.4278,1.4277,1.4239,1.4239,1.4238,1.4237,1.4205,1.4204,1.4204,1.4218,0,0,1.4202,1.4202,0,0,0,0,0,0,0,0,1.4317,1.4315,1.429,1.4288,1.4285,1.4262,1.4274,1.4257,1.424,1.4256,1.4237,1.4236,1.4224,1.4222,1.4218,1.4217,1.4215,1.4202,1.4202,1.4201,1.4201,0,0,0,0,0,0,0,1.4318,1.4316,1.4297,1.429,1.4287,1.4277,1.4273,1.4271,1.4246,1.4255,1.4252,1.4249,1.4223,1.4218,1.4217,1.4215,1.4202,1.4202,1.4201,1.4201,1.4221,1.4222,0,0,0,0,0,0,1.4323,1.4317,1.4298,1.4296,1.4299,1.4277,1.4273,1.427,1.4245,1.4241,1.425,1.4247,1.422,1.4217,1.4216,1.4229,1.4201,1.4201,1.4201,1.422,1.4221,1.4222,0,0,0,0,0,0,1.4324,1.4322,1.43,1.4306,1.4302,1.4277,1.4275,1.427,1.4266,1.4242,1.4237,1.425,1.4219,1.4216,1.4217,1.4227,1.4201,1.42,1.4219,1.422,1.4222,1.4257,0,0,0,0,0,0,1.4325,1.4322,1.4328,1.4306,1.4302,1.4303,1.4276,1.427,1.4265,1.4262,1.4241,1.4237,1.4218,1.4218,1.4217,1.4226,1.42,1.4218,1.422,1.4221,1.4255,1.426,1.4263,0,0,0,0,0,1.4326,1.434,1.4329,1.4327,1.4309,1.4303,1.4301,1.428,1.4266,1.4271,1.4255,1.4237,1.4227,1.4219,1.4217,1.4226,1.4217,1.4219,1.4221,1.4253,1.4259,1.4263,0,0,0,0,0,0,1.4364,1.4337,1.4324,1.4332,1.432,1.4297,1.4303,1.4286,1.4278,1.4275,1.4249,1.4244,1.4248,1.4237,1.4229,1.4237,1.4219,1.4221,1.4244,1.4249,1.4253,1.4255,1.42,0,0,0,0,0,1.4374,1.4372,1.4348,1.4357,1.4352,1.4328,1.4325,1.431,1.4296,1.4291,1.4275,1.4262,1.4256,1.4252,1.4245,1.4254,1.4247,1.4259,1.4263,1.4267,1.4268,1.4269,1.4273,1.4228,1.4228,1.4228,0,0,1.4393,1.4378,1.4378,1.4364,1.4353,1.435,1.4324,1.4324,1.4321,1.4291,1.429,1.4278,1.4262,1.4266,1.4267,1.4257,1.4279,1.4269,1.4272,1.4271,1.4271,1.4275,1.4279,1.4229,1.4229,1.4229,0,0,1.4426,1.4416,1.4421,1.441,1.4394,1.4378,1.4379,1.4358,1.4348,1.4348,1.4324,1.432,1.4311,1.4299,1.4292,1.4319,1.4301,1.4318,1.4339,1.434,1.4344,1.4347,1.4354,1.4358,1.4319,1.4319,1.432,0,1.4452,1.4448,1.4426,1.4425,1.4419,1.4391,1.4395,1.4386,1.4368,1.4364,1.4353,1.4338,1.4326,1.4326,1.4332,1.4328,1.4327,1.432,1.4345,1.4348,1.435,1.4357,1.436,1.4321,1.4321,1.4321,1.4321,0,1.4479,1.4477,1.4483,1.4465,1.446,1.4462,1.4438,1.4435,1.442,1.4405,1.4403,1.4387,1.4375,1.4374,1.4359,1.4371,1.4365,1.435,1.4331,1.4357,1.4363,1.4365,1.4324,1.4324,1.4323,1.4322,0,0,1.4536,1.4505,1.4508,1.4498,1.4478,1.4475,1.4475,1.4463,1.4459,1.4448,1.4446,1.4437,1.4423,1.4415,1.4399,1.44,1.4419,1.4385,1.4384,1.439,1.4428,1.4438,1.4442,1.4408,1.4408,1.4409,1.4429,0,1.4564,1.4562,1.4541,1.4545,1.4541,1.4514,1.4514,1.45,1.4486,1.448,1.4463,1.4457,1.444,1.4434,1.4435,1.4417,1.4426,1.4416,1.4404,1.4404,1.4407,1.4445,1.4456,1.4476,1.4431,1.4432,1.4432,0,1.4596,1.4586,1.4589,1.4566,1.4564,1.4564,1.455,1.4545,1.4528,1.4518,1.4508,1.4489,1.4486,1.4469,1.4463,1.4456,1.445,1.444,1.444,1.4437,1.4419,1.4441,1.4482,1.4484,1.4436,1.4435,1.4435,0,1.4634,1.4621,1.4621,1.4614,1.4588,1.4588,1.4577,1.456,1.4554,1.4541,1.4536,1.4524,1.4517,1.4508,1.4485,1.4475,1.4481,1.4463,1.447,1.4471,1.4472,1.4472,1.451,1.4471,1.4471,1.4471,1.4471,0,1.4667,1.4669,1.4637,1.4637,1.4638,1.4614,1.4616,1.4602,1.4586,1.4582,1.4558,1.4555,1.4526,1.4519,1.4501,1.4498,1.4495,1.4485,1.448,1.4486,1.4487,1.4481,1.4478,1.4472,1.4471,1.4471,1.4471,0,1.4709,1.4688,1.4685,1.4661,1.4654,1.4656,1.4634,1.4632,1.4616,1.4611,1.4608,1.4582,1.4572,1.4549,1.4533,1.4521,1.4521,1.4513,1.4526,1.4523,1.4531,1.453,1.4566,1.4568,1.4529,1.453,1.453,0,1.473,1.4731,1.4706,1.4702,1.4691,1.4685,1.4677,1.4653,1.4646,1.4626,1.4626,1.4614,1.4603,1.4587,1.4567,1.4553,1.4544,1.4557,1.4542,1.4547,1.4542,1.4541,1.454,1.4561,1.4561,1.4562,1.4562,0,1.4769,1.4758,1.4749,1.4736,1.4728,1.4717,1.4704,1.4701,1.4673,1.4667,1.4656,1.4647,1.463,1.4617,1.4601,1.4588,1.457,1.4567,1.4568,1.4573,1.458,1.4574,1.4534,1.4566,1.4566,1.4565,1.4565,1.4565,1.48,1.4799,1.478,1.4771,1.4758,1.4746,1.4742,1.4726,1.4716,1.47,1.4686,1.4676,1.4657,1.4633,1.4622,1.4612,1.4603,1.4605,1.4605,1.4605,1.4607,1.4583,1.4609,1.4609,1.4609,1.4609,1.4609,0,1.4835,1.4822,1.4814,1.4796,1.4788,1.4772,1.4756,1.475,1.4742,1.4726,1.4715,1.4701,1.4689,1.4667,1.4652,1.4648,1.4639,1.4645,1.4644,1.4641,1.4617,1.4617,1.4652,1.4652,1.4652,1.4652,1.4652,1.4652,1.4853,1.485,1.4836,1.4826,1.4812,1.4803,1.4795,1.4783,1.477,1.4756,1.4745,1.4731,1.4712,1.4695,1.4682,1.4676,1.4671,1.4679,1.467,1.4647,1.4643,1.4639,1.4639,1.4678,1.4678,1.4694,1.4694,1.4694]},{"header":{"parameterUnit":"m.s-1","parameterCategory":1,"la1":30.2991,"la2":30.254,"lo1":-89.0895,"lo2":-89.0444,"dy":0.0017,"dx":0.0017,"nx":28,"ny":28,"refTime":"2025-09-16T03:00:00:Z","depth":0,"parameterNumber":3,"parameterNumberName":"V-component_of_WINDS"},"data":[0,0,0,0,0,0,0,0,0,0,0,0,0,0,0,0,0,0,0,0,0,0,0,0,0,0,0,0,0,0,0,0,0,0,0,0,0,0,0,0,0,0,0,0,0,0,0,0,0,0,0,0,0,0,0,0,0,0,0.25,0.2499,0,0.2462,0.2461,0.2461,0.2424,0.2423,0.2423,0.2422,0.2383,0.2382,0.2382,0,0,0,0,0,0,0,0,0,0,0,0,0,0.2539,0.2538,0.25,0.2499,0.2499,0.2462,0.2461,0.2461,0.2424,0.2423,0.2423,0.2422,0.2383,0.2382,0.2382,0,0,0,0,0,0,0,0,0,0,0,0,0,0.2514,0.2538,0.25,0.2476,0.2473,0.2462,0.2461,0.2461,0.2424,0.2423,0.2422,0.2422,0.2383,0.2382,0.2382,0.2391,0,0,0.2379,0.2378,0,0,0,0,0,0,0,0,0.2515,0.2512,0.248,0.2478,0.2475,0.2447,0.2461,0.2437,0.2424,0.2443,0.2422,0.2421,0.2405,0.2402,0.2396,0.2389,0.2387,0.2379,0.2378,0.2378,0.2378,0,0,0,0,0,0,0,0.2517,0.2514,0.2485,0.248,0.2476,0.2467,0.2462,0.2456,0.2428,0.2441,0.2438,0.2434,0.2403,0.2397,0.2395,0.2386,0.2379,0.2378,0.2377,0.2377,0.2382,0.2382,0,0,0,0,0,0,0.2522,0.2515,0.2486,0.2484,0.2494,0.2466,0.2462,0.2456,0.2428,0.2423,0.2435,0.2433,0.2399,0.2396,0.2394,0.2401,0.2378,0.2377,0.2376,0.2381,0.2382,0.2383,0,0,0,0,0,0,0.2523,0.252,0.2487,0.2499,0.2494,0.2467,0.2461,0.2456,0.245,0.2424,0.2418,0.2434,0.2399,0.2395,0.2391,0.2399,0.2377,0.2376,0.238,0.2381,0.2382,0.2417,0,0,0,0,0,0,0.2525,0.2521,0.2524,0.2499,0.2493,0.2486,0.2462,0.2456,0.2449,0.2446,0.2422,0.2417,0.2398,0.2393,0.239,0.2397,0.2375,0.238,0.2381,0.2382,0.2415,0.2419,0.2422,0,0,0,0,0,0.2526,0.2536,0.2525,0.2521,0.2497,0.2487,0.2483,0.2461,0.245,0.2453,0.2435,0.2418,0.2399,0.2393,0.239,0.2397,0.2379,0.238,0.2382,0.2413,0.2418,0.2422,0,0,0,0,0,0,0.2563,0.2532,0.252,0.2521,0.2507,0.2481,0.2484,0.2468,0.2456,0.2454,0.2426,0.2421,0.242,0.2408,0.2402,0.2403,0.2386,0.2387,0.2411,0.2415,0.2419,0.2422,0.2374,0,0,0,0,0,0.2572,0.2566,0.2539,0.2543,0.2537,0.2512,0.2506,0.249,0.2474,0.2468,0.245,0.2435,0.2425,0.242,0.2409,0.2413,0.2406,0.2416,0.242,0.2423,0.2424,0.2423,0.2426,0.2388,0.2388,0.2388,0,0,0.2589,0.2571,0.2569,0.255,0.2537,0.2531,0.2507,0.2502,0.2497,0.2467,0.2462,0.2448,0.243,0.2429,0.2428,0.2419,0.2433,0.2425,0.2427,0.2427,0.2425,0.2428,0.2432,0.2389,0.2388,0.2388,0,0,0.2617,0.2604,0.2605,0.2592,0.2572,0.2555,0.2556,0.2531,0.2521,0.2516,0.2493,0.2486,0.2471,0.2457,0.2449,0.247,0.2453,0.2468,0.2487,0.2487,0.249,0.2492,0.2499,0.2501,0.2469,0.2469,0.2469,0,0.2641,0.2631,0.2608,0.2604,0.2595,0.2568,0.2568,0.2557,0.2535,0.2529,0.252,0.2498,0.2484,0.2479,0.2484,0.2478,0.2477,0.247,0.2491,0.2493,0.2495,0.2501,0.2504,0.2471,0.2471,0.247,0.247,0,0.2661,0.2655,0.2658,0.2637,0.2629,0.2628,0.2603,0.2597,0.2582,0.2566,0.2559,0.2541,0.2525,0.2523,0.2508,0.2515,0.251,0.2496,0.2479,0.2501,0.2506,0.2509,0.2473,0.2473,0.2472,0.2472,0,0,0.2712,0.2677,0.2679,0.2668,0.2644,0.2638,0.2635,0.262,0.2615,0.2601,0.2596,0.2583,0.2569,0.2559,0.2542,0.2542,0.2558,0.2527,0.2527,0.2533,0.2564,0.2574,0.2577,0.2547,0.2547,0.2547,0.2565,0,0.2736,0.2728,0.2706,0.2705,0.2698,0.2671,0.2667,0.2652,0.2636,0.2627,0.261,0.26,0.2584,0.2577,0.2575,0.2557,0.2564,0.2555,0.2541,0.2541,0.2547,0.258,0.2591,0.2609,0.2567,0.2567,0.2567,0,0.2762,0.2749,0.2747,0.2722,0.2718,0.2716,0.2699,0.2692,0.2673,0.2661,0.2649,0.263,0.2624,0.2608,0.2598,0.2592,0.2585,0.2575,0.2575,0.2573,0.2556,0.2578,0.2614,0.2616,0.257,0.257,0.257,0,0.2799,0.278,0.2776,0.2769,0.2739,0.2738,0.2725,0.2705,0.2697,0.2683,0.2677,0.2662,0.2653,0.2642,0.2618,0.2609,0.261,0.2593,0.26,0.26,0.2601,0.2602,0.2636,0.2598,0.2598,0.2598,0.2598,0,0.2827,0.2827,0.2792,0.279,0.2788,0.2762,0.2761,0.2746,0.2728,0.2722,0.2697,0.2691,0.2661,0.2652,0.2633,0.2627,0.2624,0.2613,0.2608,0.2615,0.2616,0.261,0.2608,0.2598,0.2598,0.2598,0.2598,0,0.2867,0.2844,0.2838,0.281,0.2803,0.2803,0.2779,0.2775,0.2757,0.2749,0.2746,0.2718,0.2705,0.2681,0.2661,0.2649,0.2646,0.2638,0.2653,0.265,0.2657,0.2657,0.2689,0.2691,0.2652,0.2653,0.2653,0,0.2886,0.2885,0.2857,0.2851,0.284,0.283,0.2822,0.2795,0.2787,0.2765,0.2763,0.2748,0.2735,0.2716,0.2693,0.2678,0.2668,0.2681,0.2666,0.2672,0.2667,0.2667,0.2667,0.2684,0.2685,0.2685,0.2685,0,0.2923,0.2911,0.29,0.2884,0.2875,0.2861,0.2846,0.2842,0.2812,0.2804,0.2791,0.278,0.276,0.2745,0.2726,0.2712,0.2693,0.269,0.2691,0.2697,0.2706,0.27,0.2661,0.269,0.2689,0.2689,0.2689,0.2688,0.2952,0.295,0.2929,0.2917,0.2903,0.2889,0.2884,0.2865,0.2854,0.2835,0.282,0.2808,0.2787,0.2759,0.2746,0.2735,0.2726,0.2727,0.2728,0.2728,0.273,0.2708,0.2731,0.2731,0.2731,0.2731,0.2731,0,0.2987,0.2972,0.2961,0.294,0.2931,0.2914,0.2896,0.2889,0.2878,0.286,0.2848,0.2831,0.2816,0.2792,0.2775,0.2771,0.2762,0.2767,0.2767,0.2764,0.274,0.2741,0.2775,0.2775,0.2775,0.2775,0.2775,0.2775,0.3003,0.2997,0.2983,0.297,0.2955,0.2942,0.2933,0.292,0.2906,0.2889,0.2876,0.2861,0.284,0.2821,0.2806,0.2799,0.2793,0.2801,0.2792,0.277,0.2766,0.2762,0.2762,0.28,0.28,0.2816,0.2816,0.2816]}]]